Flight Information

DEPARTURE
FRESNO, CA
Elevation:
335
Runways:
11R/29L - 8008x150 - ASPH-G
11L/29R - 9539x150 - ASPH-G
ATIS:
121.35
Clearance Delivery:
124.35
Ground:
121.7
Tower:
FRESNO TOWER 118.2
DESTINATION
,
Elevation:
TPA:
1000 (est.)


6803.5 NM71° True-15° Var56° HDG

Flight Plan:
(click to file on line)

1. Type
2. Aircraft Identification
3. Aircraft Type / Special Equipment
4. True Airspeed
kts
5. Departure Airport
(ICAO code)
6. Arriving Airport
(ICAO code)
7. Cruising Altitude
ft
8. Alternate Airport
(ICAO code)
9. Route of Flight
10. Remarks


00:00:00 Departure ATIS: Destination ATIS:

Clearance Limit:
Route:
Altitude: Expect in minutes
Frequency:
Transponder: (7500 Hijack / 7600 Lost Comms / 7700 Emergency)


KFAT 261353Z 00000KT 10SM CLR 23/07 A2996 RMK AO2 SLP139 T02330072 $
Time: 2022-06-26T13:53:00Z
1656252860
Winds: calm
Visibility: 10.0 sm
Clouds (AGL): CLR
Temperature: 23.3 C
Dew Point: 7.2 C
Pressure: 29.958662 in Hgbr

Time:
1656252861
Visibility: sm
Clouds (AGL):
Temperature: C
Dew Point: C
Pressure: in Hgbr


Notes:

Data extracted from FAA Digital Chart Supplement. Effective: 0901Z Thursday, 27 JAN 2022 to 0900z Thursday, 24 MAR 2022
Current ATIS data is provided courtisy of PilotEdge.